contact:dominique.lefevre@mio.osupytheas.fr, maurice.libes@osupytheas.fr
Project:EMSO Ligure-ouest http://www.emso-fr.org/EMSO-France
Sensor Aquadopp, line 04 Serial AQD8517 
DOI : "https://doi.org/10.17882/74513; https://doi.org/10.17882/83244" 
Title:EMSO Ligure Ouest : Data ligne ALBATROSS capteur AQUADOPP - deploiement 2021
Id,Date,Profondeur,Latitude,Longitude,X_East,Y_North,Z_Up,Amplitude_X,Amplitude_Y,Amplitude_Z,Batterie,SoundSpeed,Heading,Pitch,Roll,Pressure,Temperature,Speed,Direction
, , m, degrees North, degrees East, m.s-1, m.s-1,m.s-1, 1, 1, 1, Volt, m.s-1, degree, degree, degree, dbar, degree_C, m.s-1, degree
04,2021-11-29T21:30:00,1000.0,42.79,6.0312,0.01,-0.022,0.004,57.0,57.0,54.0,12.7,1504.7,256.2,-0.3,-0.5,967.582,13.3,0.024,155.6
04,2021-11-29T22:00:00,1000.0,42.79,6.0312,0.012,-0.024,0.003,54.0,57.0,56.0,12.7,1504.7,260.2,-0.3,-0.5,967.539,13.3,0.026,153.4
04,2021-11-29T22:30:00,1000.0,42.79,6.0312,0.02,-0.022,0.0,55.0,57.0,55.0,12.7,1504.7,264.1,-0.3,-0.5,967.575,13.29,0.029,137.7
04,2021-11-29T23:00:00,1000.0,42.79,6.0312,0.016,-0.023,0.01,55.0,59.0,56.0,12.7,1504.7,267.3,-0.3,-0.5,967.519,13.29,0.028,145.2
04,2021-11-29T23:30:00,1000.0,42.79,6.0312,0.019,-0.025,0.009,56.0,58.0,55.0,12.7,1504.7,272.9,-0.3,-0.4,967.589,13.29,0.031,142.8
04,2021-11-30T00:00:00,1000.0,42.79,6.0312,0.028,-0.018,0.0,56.0,63.0,55.0,12.7,1504.7,261.4,-0.4,-0.4,967.596,13.29,0.033,122.7
04,2021-11-30T00:30:00,1000.0,42.79,6.0312,0.024,-0.016,0.007,56.0,58.0,55.0,12.7,1504.7,259.9,-0.4,-0.4,967.585,13.29,0.028,123.7
04,2021-11-30T01:00:00,1000.0,42.79,6.0312,0.026,-0.026,0.0,56.0,60.0,53.0,12.7,1504.7,265.2,-0.3,-0.4,967.598,13.29,0.036,135.0
04,2021-11-30T01:30:00,1000.0,42.79,6.0312,0.025,-0.029,0.0,57.0,59.0,56.0,12.7,1504.7,230.6,-0.4,-0.5,967.635,13.29,0.038,139.2
04,2021-11-30T02:00:00,1000.0,42.79,6.0312,0.04,-0.034,-0.01,56.0,57.0,56.0,12.7,1504.7,228.1,-0.4,-0.4,967.662,13.29,0.052,130.4
04,2021-11-30T02:30:00,1000.0,42.79,6.0312,0.038,-0.032,0.001,56.0,58.0,56.0,12.7,1504.7,227.7,-0.4,-0.4,967.667,13.29,0.049,130.1
04,2021-11-30T03:00:00,1000.0,42.79,6.0312,0.036,-0.032,-0.007,56.0,58.0,55.0,12.7,1504.7,228.6,-0.4,-0.5,967.679,13.29,0.048,131.6
04,2021-11-30T03:30:00,1000.0,42.79,6.0312,0.033,-0.038,0.005,55.0,57.0,55.0,12.7,1504.7,226.9,-0.4,-0.5,967.683,13.3,0.05,139.0
04,2021-11-30T04:00:00,1000.0,42.79,6.0312,0.042,-0.038,-0.004,57.0,58.0,54.0,12.7,1504.7,227.1,-0.4,-0.5,967.696,13.3,0.056,132.1
04,2021-11-30T04:30:00,1000.0,42.79,6.0312,0.033,-0.054,0.012,56.0,59.0,55.0,12.7,1504.8,231.2,-0.4,-0.5,967.719,13.31,0.063,148.6
04,2021-11-30T05:00:00,1000.0,42.79,6.0312,0.03,-0.072,0.021,55.0,58.0,55.0,12.7,1504.8,234.2,-0.4,-0.5,967.719,13.31,0.077,157.4
04,2021-11-30T05:30:00,1000.0,42.79,6.0312,0.029,-0.06,-0.007,55.0,58.0,56.0,12.7,1504.8,237.0,-0.4,-0.5,967.713,13.31,0.066,154.2
04,2021-11-30T06:00:00,1000.0,42.79,6.0312,0.024,-0.052,0.003,56.0,58.0,54.0,12.7,1504.8,241.9,-0.4,-0.5,967.696,13.31,0.057,155.2
04,2021-11-30T06:30:00,1000.0,42.79,6.0312,0.012,-0.049,-0.002,56.0,56.0,55.0,12.7,1504.8,247.9,-0.4,-0.4,967.678,13.31,0.05,166.2
04,2021-11-30T07:00:00,1000.0,42.79,6.0312,0.014,-0.063,-0.005,55.0,57.0,54.0,12.7,1504.8,253.1,-0.4,-0.5,967.667,13.31,0.064,167.5
04,2021-11-30T07:30:00,1000.0,42.79,6.0312,0.011,-0.045,0.002,55.0,59.0,56.0,12.7,1504.8,262.8,-0.4,-0.4,967.693,13.31,0.046,166.3
04,2021-11-30T08:00:00,1000.0,42.79,6.0312,0.016,-0.043,-0.007,54.0,56.0,54.0,12.7,1504.8,270.6,-0.4,-0.4,967.677,13.31,0.045,159.6
04,2021-11-30T08:30:00,1000.0,42.79,6.0312,0.012,-0.042,0.007,53.0,57.0,53.0,12.7,1504.8,277.2,-0.4,-0.4,967.696,13.31,0.043,164.1
04,2021-11-30T09:00:00,1000.0,42.79,6.0312,0.002,-0.023,0.017,54.0,56.0,52.0,12.7,1504.8,282.2,-0.3,-0.4,967.654,13.31,0.023,175.0
04,2021-11-30T09:30:00,1000.0,42.79,6.0312,-0.012,-0.031,0.021,54.0,56.0,51.0,12.7,1504.8,284.0,-0.3,-0.4,967.68,13.31,0.033,201.2
04,2021-11-30T10:30:00,1000.0,42.79,6.0312,-0.01,-0.017,0.019,53.0,59.0,52.0,12.7,1504.7,278.1,-0.3,-0.4,967.657,13.3,0.019,210.5
04,2021-11-30T11:00:00,1000.0,42.79,6.0312,0.008,-0.032,0.004,57.0,55.0,54.0,12.7,1504.7,276.7,-0.3,-0.4,967.708,13.3,0.032,166.0
04,2021-11-30T11:30:00,1000.0,42.79,6.0312,0.008,-0.025,-0.011,53.0,54.0,54.0,12.7,1504.7,279.9,-0.4,-0.4,967.704,13.3,0.026,162.3
04,2021-11-30T12:00:00,1000.0,42.79,6.0312,0.012,-0.019,0.013,53.0,54.0,53.0,12.7,1504.7,274.3,-0.3,-0.4,967.742,13.3,0.022,147.7
04,2021-11-30T12:30:00,1000.0,42.79,6.0312,0.014,-0.01,0.0,52.0,55.0,52.0,12.7,1504.8,262.7,-0.4,-0.4,967.783,13.31,0.017,125.5
04,2021-11-30T13:00:00,1000.0,42.79,6.0312,0.03,-0.028,0.012,52.0,56.0,53.0,12.7,1504.8,260.2,-0.4,-0.4,967.809,13.32,0.041,133.0
04,2021-11-30T13:30:00,1000.0,42.79,6.0312,0.036,-0.037,0.009,53.0,53.0,51.0,12.7,1504.8,257.2,-0.4,-0.4,967.801,13.31,0.051,135.8
04,2021-11-30T14:00:00,1000.0,42.79,6.0312,0.045,-0.038,0.005,53.0,55.0,52.0,12.7,1504.8,260.8,-0.4,-0.4,967.848,13.31,0.058,130.2
04,2021-11-30T14:30:00,1000.0,42.79,6.0312,0.025,-0.031,0.004,54.0,55.0,52.0,12.7,1504.8,255.5,-0.4,-0.4,967.857,13.31,0.039,141.1
04,2021-11-30T15:00:00,1000.0,42.79,6.0312,0.021,-0.029,-0.01,53.0,55.0,53.0,12.7,1504.8,258.9,-0.3,-0.4,967.833,13.31,0.035,144.1
04,2021-11-30T15:30:00,1000.0,42.79,6.0312,0.024,-0.037,-0.001,55.0,55.0,52.0,12.7,1504.8,252.1,-0.4,-0.4,967.902,13.32,0.044,147.0
04,2021-11-30T16:00:00,1000.0,42.79,6.0312,0.027,-0.042,0.01,54.0,55.0,50.0,12.7,1504.8,255.7,-0.4,-0.5,967.878,13.31,0.049,147.3
04,2021-11-30T16:30:00,1000.0,42.79,6.0312,0.02,-0.044,0.0,53.0,54.0,51.0,12.7,1504.8,253.2,-0.4,-0.4,967.893,13.31,0.048,155.6
04,2021-11-30T17:00:00,1000.0,42.79,6.0312,0.019,-0.04,0.019,53.0,54.0,50.0,12.7,1504.8,254.5,-0.4,-0.5,967.885,13.31,0.044,154.6
04,2021-11-30T17:30:00,1000.0,42.79,6.0312,0.006,-0.048,-0.005,52.0,53.0,52.0,12.7,1504.8,258.0,-0.4,-0.5,967.863,13.31,0.048,172.9
04,2021-11-30T18:00:00,1000.0,42.79,6.0312,0.012,-0.044,0.0,51.0,56.0,51.0,12.7,1504.8,258.7,-0.4,-0.4,967.898,13.32,0.045,164.7
04,2021-11-30T18:30:00,1000.0,42.79,6.0312,0.007,-0.057,0.018,52.0,53.0,50.0,12.7,1504.8,258.7,-0.4,-0.5,967.818,13.32,0.057,173.0
04,2021-11-30T19:00:00,1000.0,42.79,6.0312,0.018,-0.042,0.003,51.0,53.0,49.0,12.7,1504.8,261.3,-0.4,-0.5,967.825,13.33,0.045,156.8
04,2021-11-30T19:30:00,1000.0,42.79,6.0312,0.0,-0.047,0.002,52.0,53.0,51.0,12.7,1504.8,263.0,-0.4,-0.5,967.803,13.33,0.047,180.0
04,2021-11-30T20:00:00,1000.0,42.79,6.0312,0.006,-0.052,0.001,52.0,54.0,50.0,12.7,1504.8,267.7,-0.4,-0.5,967.748,13.33,0.052,173.4
04,2021-11-30T20:30:00,1000.0,42.79,6.0312,0.013,-0.052,-0.003,51.0,55.0,50.0,12.7,1504.8,271.9,-0.4,-0.4,967.736,13.32,0.053,166.0
04,2021-11-30T21:00:00,1000.0,42.79,6.0312,-0.008,-0.057,0.015,55.0,54.0,50.0,12.7,1504.8,281.2,-0.4,-0.4,967.687,13.32,0.057,188.0
